Home   Weather   Bramsche   Past weeks

Flag for Germany Past Weather in Bramsche, Lower Saxony, Germany — Yesterday and Last 2 Weeks

Now
27 °F

Ice fog.


Feels Like: 23 °F
Forecast: 24 / 29 °F
Wind: 3 mph from Northeast

Location: Muenster / Osnabrueck

Current Time: Jan 17, 2017 at 2:07:31 am

Latest Report: Jan 17, 2017 at 1:20 am


Visibility: 3 mi

Pressure: 30.54 "Hg

Humidity: 93%

Dew Point: 25 °F

Location of BramscheLocation

Past Weather in Bramsche — Graph

°F

Bramsche Temperature Yesterday

Maximum temperature yesterday: 32 °F (at 11:20 am)
Minimum temperature yesterday: 27 °F (at 1:50 am)
Average temperature yesterday: 29 °F

High & Low Weather Summary for the Past Weeks

 TemperatureHumidityPressure
High46 °F (Jan 11, 1:50 pm)100% (Jan 2, 12:20 am)30.74 "Hg (Jan 2, 12:20 am)
Low16 °F (Jan 6, 5:20 am)59% (Jan 5, 3:20 pm)28.94 "Hg (Jan 13, 2:20 am)
Average34 °F88%30.06 "Hg
* Reported Jan 2 12:20 am — Jan 17 12:50 am, Bramsche, Weather by CustomWeather, © 2017

Note: Actual official high and low records may vary slightly from our data, if they occured in-between our weather recording intervals... More about our weather records

Advertising

Bramsche Weather History for the Previous 24 Hours

Scroll right to see more
 ConditionsComfort  
Time TempWeatherWind HumidityBarometerVisibility
12:50 am
Tue, Jan 17
27 °FIce fog.3 mph93%30.54 "Hg3 mi
12:20 am27 °FLow clouds.3 mph93%30.51 "Hg4 mi
11:50 pm
Mon, Jan 16
27 °FLow clouds.5 mph93%30.51 "Hg4 mi
11:20 pm27 °FLow clouds.5 mph93%30.51 "Hg4 mi
10:50 pm27 °FLow clouds.5 mph93%30.51 "Hg5 mi
10:20 pm27 °FLow clouds.3 mph93%30.51 "Hg5 mi
9:50 pm27 °FLow clouds.3 mph93%30.48 "Hg5 mi
9:20 pm27 °FLow clouds.5 mph93%30.48 "Hg5 mi
8:50 pm27 °FLow clouds.3 mph93%30.48 "Hg5 mi
8:20 pm27 °FLow clouds.3 mph93%30.45 "Hg5 mi
7:50 pm27 °FLow clouds.6 mph93%30.45 "Hg5 mi
7:20 pm27 °FPassing clouds.5 mph93%30.42 "Hg5 mi
6:50 pm28 °FPassing clouds.5 mph93%30.42 "HgN/A
6:20 pm28 °FPassing clouds.6 mph86%30.42 "HgN/A
5:50 pm28 °FPassing clouds.7 mph86%30.42 "HgN/A
5:20 pm28 °FPassing clouds.3 mph86%30.42 "HgN/A
4:50 pm28 °FPassing clouds.5 mph86%30.39 "HgN/A
4:20 pm28 °FPartly sunny.3 mph86%30.39 "HgN/A
3:50 pm28 °FPartly sunny.5 mph93%30.39 "HgN/A
3:20 pm30 °FScattered clouds.6 mph86%30.36 "HgN/A
2:50 pm28 °FScattered clouds.6 mph93%30.36 "HgN/A
2:20 pm30 °FPartly sunny.9 mph86%30.36 "HgN/A
1:50 pm30 °FPassing clouds.7 mph86%30.36 "HgN/A
1:20 pm30 °FPassing clouds.7 mph86%30.36 "HgN/A
12:50 pm32 °FPassing clouds.7 mph80%30.36 "HgN/A
12:20 pm32 °FPassing clouds.6 mph87%30.33 "HgN/A
11:50 am32 °FPassing clouds.7 mph87%30.33 "HgN/A
11:20 am32 °FPassing clouds.5 mph87%30.33 "HgN/A
10:50 am30 °FPassing clouds.6 mph93%30.33 "HgN/A
10:20 am30 °FPassing clouds.3 mph93%30.33 "HgN/A
9:50 am30 °FPartly sunny.5 mph93%30.33 "HgN/A
9:20 am30 °FPartly sunny.1 mph100%30.30 "Hg4 mi
8:50 am30 °FPartly sunny.No wind100%30.30 "Hg4 mi
8:20 am30 °FIce fog.3 mph100%30.27 "Hg3 mi
7:50 am30 °FIce fog.3 mph100%30.27 "Hg2 mi
7:20 am30 °FIce fog.3 mph100%30.27 "Hg2 mi
6:50 am30 °FIce fog.3 mph100%30.27 "Hg2 mi
6:20 am30 °FIce fog.1 mph100%30.24 "Hg2 mi
5:50 am30 °FIce fog.2 mph100%30.24 "Hg2 mi
5:20 am30 °FIce fog.1 mph100%30.24 "Hg2 mi
4:50 am30 °FIce fog.2 mph100%30.24 "Hg2 mi
4:20 am30 °FIce fog.No wind93%30.24 "Hg0 mi
3:50 am30 °FIce fog.1 mph93%30.21 "Hg0 mi
3:20 am28 °FIce fog.1 mph100%30.21 "Hg0 mi
2:50 am28 °FIce fog.1 mph100%30.21 "Hg0 mi
2:20 am27 °FIce fog.2 mph100%30.21 "Hg2 mi
Weather by CustomWeather, © 2017

See weather overviewHow to use our weather pages